Regional Weather Roundup
Issued by NWS Nashville, TN

Home | Current Version | Previous Version | Text Only | Print | Product List | Glossary On
Versions: 1 2 3 4 5 6 7 8 9 10 11 12 13 14 15 16 17 18 19 20 21 22 23 24 25 26 27 28 29 30 31 32 33 34 35 36 37 38 39 40 41 42 43 44 45 46 47 48 49 50
000
ASUS44 KOHX 201915
RWROHX
MIDDLE TENNESSEE HOURLY WEATHER ROUNDUP
NATIONAL WEATHER SERVICE NASHVILLE TN
200 PM CDT SUN APR 20 2014

NOTE: "FAIR" INDICATES FEW OR NO CLOUDS BELOW 12,000 FEET WITH
NO SIGNIFICANT WEATHER AND/OR OBSTRUCTIONS TO VISIBILITY.

* THESE REPORTS ARE NOT UNDER NWS QUALITY CONTROL AND MAY NOT
  REPORT WEATHER SUCH AS PRECIPITATION AND FOG.


TNZ005>011-023>034-057-059-062>066-078-080-202000
...NORTHERN MIDDLE TENNESSEE...

CITY           SKY/WX    TMP DP  RH WIND       PRES   REMARKS
BAXTER*          N/A     81  48  32 W7G23       N/A
BRENTWOOD*       N/A     82  46  28 CALM        N/A
CASTALIAN SPRG   N/A     79  45  29 W5          N/A
CLARKSVILLE    SUNNY     77  42  28 N6        30.17F
COLUMBIA       SUNNY     79  52  38 N3        30.17F
CROSSVILLE     SUNNY     73  35  25 VRB6      30.21F
GALLATIN         N/A     77  40  26 CALM      30.19F
DICKSON        SUNNY     77  39  25 SW5       30.17F
FAIRFIELD GLAD   N/A     73  45  35 SE3         N/A
GOODLETTSVILLE   N/A     75  52  43 E8          N/A
JOELTON*         N/A     79  46  31 NE3         N/A
LAFAYETTE*       N/A     77  46  33 SW5         N/A
LIVINGSTON     SUNNY     74  40  29 VRB5      30.20F
MONTEREY         N/A     75  39  27 CALM        N/A
MOUNT JULIET*    N/A     77  43  29 CALM        N/A
NASHVILLE      MOSUNNY   78  40  25 S5        30.17F
OLD HICKORY*     N/A     79  52  38 MISG        N/A
PEGRAM*          N/A    N/A N/A N/A W2          N/A
PORTLAND         N/A     73  41  31 VRB5      30.17F
SMYRNA         SUNNY     79  44  28 VRB3      30.18F
SPARTA         SUNNY     77  39  25 SE5       30.18F
SPRINGFIELD*     N/A     77  54  44 MISG        N/A
WHITE BLUFF*     N/A     81  37  21 N1          N/A
$$
TNZ056-058-060-061-075>077-079-093>097-202000
...SOUTHERN MIDDLE TENNESSEE...

CITY           SKY/WX    TMP DP  RH WIND       PRES   REMARKS
BELLEVUE*        N/A     79  46  31 CALM        N/A
CULLEOKA*        N/A     79  39  24 W1          N/A
EAGLEVILLE*      N/A    N/A N/A N/A SE5         N/A
FAYETTEVILLE   SUNNY     72  45  37 SW3       30.19F
HOHENWALD*       N/A     79  39  24 W3          N/A
LEWISBURG      SUNNY     78  47  33 VRB6      30.17F
MANCHESTER*      N/A     75  45  33 N2          N/A
MCMINNVILLE      N/A     74  45  35 VRB6      30.19F
MOUNT PLEASANT   N/A     77  48  36 NE3         N/A
MURFREESBORO   SUNNY     76  44  31 SE5       30.17F
SHELBYVILLE    SUNNY     75  46  35 CALM      30.20F
SPRING HILL*     N/A     77  48  36 S1          N/A
TULLAHOMA      SUNNY     75  45  33 S5        30.19F
WINCHESTER     SUNNY     73  43  33 N6        30.18F
$$


...KEY TO REMARKS...
VSB - VISIBILITY IN MILES
WCI - WIND CHILL INDEX
HX  - HEAT INDEX




USA.gov is the U.S. government's official web portal to all federal, state and local government web resources and services.